Regional Weather Roundup
Issued by NWS Jackson, KY

Home | Current Version | Previous Version | Text Only | Print | Product List | Glossary Off
Versions: 1 2 3 4 5 6 7 8 9 10 11 12 13 14 15 16 17 18 19 20 21 22 23 24 25 26 27

000
ASUS43 KJKL 261710
RWRJKL

EAST KENTUCKY HOURLY WEATHER ROUNDUP
NATIONAL WEATHER SERVICE JACKSON KY
100 PM EDT TUE JUL 26 2016

NOTE: "FAIR" INDICATES FEW OR NO CLOUDS BELOW 12,000 FEET WITH
NO SIGNIFICANT WEATHER AND/OR OBSTRUCTIONS TO VISIBILITY.

* THESE REPORTS ARE NOT UNDER NWS QUALITY CONTROL AND MAY NOT
  REPORT WEATHER SUCH AS PRECIPITATION AND FOG.

KYZ079-080-083-085-087-088-110-112-115-119-120-261800
...EASTERN KENTUCKY...

CITY           SKY/WX    TMP DP  RH WIND       PRES   REMARKS
JACKSON        MOSUNNY   87  73  62 CALM      30.09S HX  94
LONDON         MOSUNNY   88  69  53 W6        30.08S HX  92
SOMERSET*      PTSUNNY   86  72  62 E3        30.07F HX  92
MONTICELLO*    SUNNY    N/A N/A N/A VRB6      30.07F
WILLIAMSBURG*  MOSUNNY   88  75  66 CALM      30.08F HX  97
MIDDLESBORO*   PTSUNNY   88  74  63 N3        30.08F HX  97
HARLAN APT*      N/A     88  68  51 CALM      30.10F HX  91
PIKE CO APT*   PTSUNNY   85  74  69 SW3       30.09F HX  92
MOREHEAD APT*  MOSUNNY   86  73  66 SW6       30.08S HX  93
ASHLAND*       MOSUNNY   88  77  70 CALM      30.01F HX 100
$$

KYZ035-036-041-042-044-050-067-078-099-261800
...CENTRAL KENTUCKY...

CITY           SKY/WX    TMP DP  RH WIND       PRES   REMARKS
MT STERLING*   MOSUNNY   86  73  66 SW6       30.07F HX  93
FLEMING/MASON* CLOUDY    86  74  68 S5        30.06F HX  94
DANVILLE*      MOSUNNY   90  73  58 W3        30.07S HX  98
LEXINGTON      MOSUNNY   88  73  61 SW5       30.06S HX  95
FRANKFORT      MOSUNNY   88  73  61 W5        30.03F HX  95
LOUISVILLE     PTSUNNY   90  72  55 SW8       30.01F HX  97
LEBANON*         N/A     88  73  62 S5        30.05S HX  96
GLASGOW*       PTSUNNY   91  74  57 W5        30.03F HX  99
BOWLING GREEN  MOSUNNY   91  73  55 SW7       30.02F HX  99
$$

KYZ091>093-OHZ055-061-077-WVZ005-015-034-035-042-261800
...SOUTHERN OHIO/WEST VIRGINIA...

CITY           SKY/WX    TMP DP  RH WIND       PRES   REMARKS
COVINGTON      CLOUDY    82  72  69 NW17      30.04F THUNDER
COLUMBUS       CLOUDY    86  65  49 VRB3      30.04S
DAYTON         CLOUDY    82  67  60 VRB3      30.07F
WILMINGTON     CLOUDY    82  71  69 CALM      30.05F
HUNTINGTON     CLOUDY    85  73  67 SW3       30.03F HX  91
CHARLESTON     PTSUNNY   86  72  62 CALM      30.04F THUNDER HX  92
PINEVILLE*       N/A     88  68  50 MISG      30.15F HX  91
BECKLEY          N/A     83  68  60 SW8       30.14F
BLUEFIELD        N/A     82  68  62 VRB7      30.17F
LOGAN CO APT*  PTSUNNY   84  73  70 VRB7      30.08F HX  91
$$

VAZ002-007-008-TNZ017-027-036-066-071-261800
...SOUTHWEST VIRGINIA/EAST TENNESSEE...

CITY           SKY/WX    TMP DP  RH WIND       PRES   REMARKS
WISE*            N/A     84  61  45 W7        30.18F
JONESVILLE*      N/A     88  72  58 CALM      30.11F HX  94
ABINGDON*        N/A     87  70  56 W3        30.14S HX  91
BRISTOL        PTSUNNY   89  68  49 VRB3      30.09F HX  93
MORRISTOWN*    SUNNY     91  68  46 VRB3      30.07F HX  95
SEVIERVILLE*     N/A     90  70  51 VRB3      30.05F HX  95
KNOXVILLE      CLOUDY    87  71  58 W5        30.06F HX  93
OAK RIDGE      CLOUDY    88  72  58 VRB3      30.07F HX  94
CROSSVILLE     CLOUDY    83  73  72 CALM      30.12F
NASHVILLE      MOSUNNY   94  68  42 VRB5      30.03F HX  98
$$

...KEY TO REMARKS...
VSB - VISIBILITY IN MILES
WCI - WIND CHILL INDEX
HX  - HEAT INDEX

$$




USA.gov is the U.S. government's official web portal to all federal, state and local government web resources and services.